Location: Fours
(44.3167°N, 6.7000°E)
Time: 19:37:15
(UTC+00:00)

Timation 2 Rocket - Pass Details

Date: 03 June 2022
Orbit: 904 x 1076 km, 70.0° (Epoch: 25 June)

Event Time Altitude Azimuth Distance (km) Brightness Sun altitude
Rises 19:42:56 0° 327° (NNW) 3,774 8.8 -5.3°
Reaches altitude 10° 19:45:37 10° 320° (NW) 2,842 8.1 -5.7°
Maximum altitude 19:51:48 42° 253° (WSW) 1,478 5.3 -6.6°
Drops below altitude 10° 19:58:07 10° 185° (S) 2,897 6.1 -7.4°
Sets 20:00:54 0° 179° (S) 3,854 6.7 -7.8°
